[[{"header":{"parameterUnit":"m.s-1","parameterCategory":1,"la1":30.2991,"la2":30.254,"lo1":-89.0895,"lo2":-89.0444,"dy":0.0017,"dx":0.0017,"nx":28,"ny":28,"refTime":"2025-07-09T09:00:00:Z","depth":0,"parameterNumber":2,"parameterNumberName":"U-component_of_WINDS"},"data":[0,0,0,0,0,0,0,0,0,0,0,0,0,0,0,0,0,0,0,0,0,0,0,0,0,0,0,0,0,0,0,0,0,0,0,0,0,0,0,0,0,0,0,0,0,0,0,0,0,0,0,0,0,0,0,0,0,0,2.4875,2.4875,0,2.4921,2.4922,2.4922,2.4905,2.4903,2.4902,2.4901,2.4953,2.4955,2.4958,0,0,0,0,0,0,0,0,0,0,0,0,0,2.4774,2.4776,2.4874,2.4875,2.4876,2.4921,2.4922,2.4923,2.4905,2.4903,2.4902,2.4901,2.4952,2.4955,2.4958,0,0,0,0,0,0,0,0,0,0,0,0,0,2.4819,2.4776,2.4874,2.4872,2.4872,2.4921,2.4922,2.4923,2.4905,2.4903,2.4902,2.49,2.4951,2.4955,2.4958,2.5013,0,0,2.4969,2.4971,0,0,0,0,0,0,0,0,2.4816,2.4823,2.4872,2.4872,2.4873,2.4905,2.4905,2.4953,2.4905,2.4893,2.4901,2.4899,2.4939,2.4943,2.4956,2.5015,2.5018,2.4969,2.4972,2.4973,2.4974,0,0,0,0,0,0,0,2.4813,2.482,2.4893,2.4873,2.4873,2.487,2.4875,2.4914,2.4924,2.4894,2.4892,2.4898,2.4939,2.4952,2.4957,2.5018,2.4969,2.4973,2.4975,2.4976,2.5127,2.5129,0,0,0,0,0,0,2.4809,2.4818,2.4892,2.4895,2.484,2.4873,2.4878,2.4897,2.4924,2.4926,2.4899,2.4897,2.4947,2.4953,2.4958,2.5026,2.4973,2.4977,2.4979,2.5126,2.5128,2.513,0,0,0,0,0,0,2.4807,2.4816,2.489,2.4856,2.4865,2.4877,2.4897,2.4898,2.4912,2.4928,2.493,2.4911,2.4946,2.4953,2.5,2.5027,2.4978,2.4981,2.5123,2.5126,2.5129,2.516,0,0,0,0,0,0,2.4804,2.4815,2.4835,2.4856,2.4867,2.4929,2.4899,2.49,2.4918,2.4915,2.494,2.4942,2.4945,2.4994,2.5003,2.5031,2.4984,2.5121,2.5125,2.5128,2.5157,2.5163,2.5169,0,0,0,0,0,2.4801,2.4843,2.4836,2.4845,2.4892,2.4931,2.4937,2.4938,2.492,2.4941,2.4952,2.4942,2.5023,2.4999,2.5009,2.5039,2.5119,2.5124,2.5128,2.5154,2.5162,2.5169,0,0,0,0,0,0,2.4826,2.4845,2.4839,2.4888,2.4908,2.4927,2.4954,2.4947,2.4973,2.4969,2.4971,2.4977,2.5025,2.5036,2.501,2.5094,2.5068,2.5075,2.5085,2.5093,2.5099,2.5096,2.4987,0,0,0,0,0,2.4836,2.4865,2.4881,2.4924,2.4934,2.4942,2.4959,2.4958,2.4979,2.4988,2.5002,2.5023,2.5054,2.5074,2.5103,2.5158,2.5164,2.5183,2.5189,2.5195,2.5201,2.5232,2.5242,2.5144,2.5144,2.5144,0,0,2.486,2.4874,2.4892,2.4929,2.4944,2.4975,2.4949,2.4983,2.5007,2.4993,2.5038,2.5049,2.5073,2.5125,2.5148,2.5136,2.5229,2.52,2.5204,2.5207,2.5238,2.5247,2.5255,2.5147,2.5146,2.5146,0,0,2.4919,2.4932,2.4969,2.4985,2.5007,2.5013,2.5022,2.5043,2.505,2.5094,2.5085,2.5114,2.5166,2.5184,2.52,2.5266,2.5259,2.5276,2.531,2.5341,2.5349,2.5355,2.5381,2.539,2.5281,2.5282,2.5282,0,2.4945,2.4991,2.4989,2.5024,2.5041,2.5029,2.5068,2.5084,2.5115,2.5128,2.5114,2.5179,2.5195,2.5251,2.5267,2.528,2.5292,2.5274,2.5347,2.5354,2.5361,2.5385,2.5394,2.5284,2.5283,2.5283,2.5283,0,2.5023,2.5055,2.5082,2.5112,2.5132,2.5169,2.5175,2.5196,2.5193,2.5201,2.5247,2.5265,2.5298,2.5311,2.531,2.5368,2.536,2.5346,2.5321,2.5372,2.5395,2.5404,2.5286,2.5286,2.5285,2.5285,0,0,2.5099,2.5128,2.5138,2.5152,2.5177,2.5202,2.5239,2.527,2.5289,2.5311,2.5343,2.5388,2.5375,2.5394,2.5394,2.5421,2.5475,2.5404,2.5405,2.5418,2.5542,2.5553,2.5563,2.5469,2.5471,2.5472,2.554,0,2.5161,2.5224,2.5225,2.5284,2.5314,2.5303,2.5336,2.5355,2.5363,2.5391,2.5401,2.5433,2.5413,2.5425,2.5451,2.5462,2.55,2.5457,2.5501,2.5502,2.5496,2.5575,2.5587,2.565,2.5549,2.555,2.5552,0,2.5242,2.5266,2.5328,2.5349,2.5362,2.5391,2.542,2.5446,2.5469,2.5473,2.5493,2.549,2.5529,2.5501,2.5556,2.5528,2.5546,2.5554,2.5557,2.5562,2.5531,2.5584,2.567,2.568,2.5565,2.5564,2.5563,0,2.5293,2.5341,2.5385,2.5397,2.5422,2.5443,2.5455,2.5475,2.5495,2.5521,2.5533,2.5564,2.5581,2.5605,2.5611,2.559,2.5667,2.5639,2.5673,2.5673,2.569,2.5689,2.5782,2.57,2.5699,2.5699,2.5699,0,2.5363,2.5402,2.5408,2.5435,2.5479,2.5479,2.5523,2.5533,2.5552,2.5582,2.5574,2.5603,2.5608,2.5638,2.5642,2.5688,2.5696,2.5702,2.5703,2.5703,2.5702,2.5716,2.5712,2.5702,2.5701,2.5701,2.57,0,2.5428,2.5434,2.5481,2.5501,2.5507,2.5538,2.5556,2.5583,2.559,2.5628,2.5637,2.5649,2.5684,2.5692,2.5733,2.5737,2.5792,2.5788,2.5784,2.5784,2.5818,2.5815,2.5923,2.5938,2.5844,2.5845,2.5846,0,2.5473,2.5503,2.5526,2.5545,2.5557,2.5588,2.5607,2.5609,2.563,2.5658,2.5682,2.5716,2.5744,2.58,2.5814,2.5846,2.5844,2.588,2.5849,2.5849,2.5846,2.5845,2.5849,2.5886,2.5887,2.5888,2.5888,0,2.5553,2.5555,2.5582,2.5611,2.5634,2.5657,2.5679,2.5695,2.5701,2.5725,2.576,2.5781,2.5824,2.5858,2.5891,2.5904,2.5898,2.5898,2.5907,2.5909,2.5906,2.591,2.5801,2.5896,2.5895,2.5894,2.5894,2.5894,2.5611,2.5637,2.5657,2.5689,2.5705,2.5726,2.5752,2.5763,2.5792,2.5826,2.5825,2.5865,2.5887,2.593,2.5946,2.5977,2.5967,2.598,2.5984,2.5988,2.5992,2.59,2.5983,2.5983,2.5983,2.5983,2.5983,0,2.5692,2.5704,2.5733,2.5764,2.5789,2.5779,2.5803,2.5825,2.5859,2.588,2.5907,2.5949,2.5982,2.5998,2.6032,2.6054,2.6052,2.6063,2.6062,2.6066,2.5999,2.5988,2.6064,2.6064,2.6064,2.6064,2.6064,2.6064,2.5737,2.5781,2.5785,2.5838,2.585,2.5888,2.5903,2.5922,2.5939,2.5985,2.6013,2.6022,2.6042,2.6077,2.6108,2.6112,2.6126,2.6138,2.6141,2.6078,2.607,2.6062,2.6052,2.6141,2.6141,2.6206,2.6206,2.6207]},{"header":{"parameterUnit":"m.s-1","parameterCategory":1,"la1":30.2991,"la2":30.254,"lo1":-89.0895,"lo2":-89.0444,"dy":0.0017,"dx":0.0017,"nx":28,"ny":28,"refTime":"2025-07-09T09:00:00:Z","depth":0,"parameterNumber":3,"parameterNumberName":"V-component_of_WINDS"},"data":[0,0,0,0,0,0,0,0,0,0,0,0,0,0,0,0,0,0,0,0,0,0,0,0,0,0,0,0,0,0,0,0,0,0,0,0,0,0,0,0,0,0,0,0,0,0,0,0,0,0,0,0,0,0,0,0,0,0,1.4839,1.484,0,1.4902,1.4903,1.4903,1.4921,1.492,1.492,1.492,1.4984,1.4986,1.4988,0,0,0,0,0,0,0,0,0,0,0,0,0,1.473,1.4732,1.4839,1.484,1.4841,1.4902,1.4903,1.4904,1.4921,1.492,1.492,1.4919,1.4983,1.4985,1.4988,0,0,0,0,0,0,0,0,0,0,0,0,0,1.4784,1.4733,1.4839,1.4857,1.4859,1.4902,1.4903,1.4904,1.4921,1.492,1.492,1.4919,1.4982,1.4985,1.4988,1.5018,0,0,1.4997,1.4999,0,0,0,0,0,0,0,0,1.4781,1.4788,1.4853,1.4855,1.4858,1.4903,1.4888,1.4942,1.4921,1.4897,1.492,1.4919,1.4957,1.4962,1.4975,1.5021,1.5023,1.4998,1.5,1.5001,1.5002,0,0,0,0,0,0,0,1.4777,1.4785,1.4864,1.4854,1.4857,1.486,1.4867,1.4898,1.4929,1.4899,1.4901,1.4908,1.4958,1.4972,1.4977,1.5024,1.4998,1.5,1.5002,1.5003,1.5092,1.5093,0,0,0,0,0,0,1.477,1.4782,1.4862,1.4866,1.4817,1.4862,1.487,1.4889,1.4929,1.4935,1.4908,1.4908,1.4967,1.4973,1.4979,1.5014,1.5001,1.5004,1.5005,1.5092,1.5092,1.5093,0,0,0,0,0,0,1.4768,1.4777,1.4859,1.4824,1.4835,1.4865,1.4886,1.4891,1.4905,1.4936,1.4941,1.4917,1.4967,1.4975,1.5007,1.5016,1.5005,1.5008,1.5091,1.5092,1.5093,1.5085,0,0,0,0,0,0,1.4765,1.4776,1.4789,1.4824,1.4837,1.4887,1.4886,1.4892,1.491,1.4911,1.4946,1.4951,1.4967,1.5002,1.501,1.502,1.501,1.509,1.5091,1.5092,1.5084,1.5085,1.5086,0,0,0,0,0,1.4761,1.4786,1.479,1.48,1.4853,1.4888,1.4895,1.4914,1.4911,1.4923,1.4942,1.495,1.5014,1.5005,1.5014,1.5026,1.509,1.5091,1.5092,1.5084,1.5085,1.5086,0,0,0,0,0,0,1.4752,1.4791,1.4796,1.4833,1.4857,1.4891,1.4907,1.4915,1.494,1.494,1.4961,1.4969,1.4999,1.5015,1.5005,1.5054,1.5052,1.5055,1.5042,1.5044,1.5044,1.504,1.5013,0,0,0,0,0,1.4754,1.478,1.4812,1.4841,1.4853,1.4877,1.4893,1.4905,1.4931,1.4941,1.4963,1.4987,1.5012,1.5029,1.5054,1.5086,1.5092,1.5098,1.5098,1.5099,1.5101,1.5116,1.5118,1.5097,1.5097,1.5097,0,0,1.476,1.4784,1.4799,1.484,1.486,1.4884,1.4886,1.4913,1.4931,1.4945,1.4977,1.4993,1.5021,1.5052,1.5067,1.5067,1.5108,1.5101,1.5101,1.5103,1.5117,1.5119,1.5121,1.5098,1.5097,1.5097,0,0,1.4781,1.4803,1.4828,1.4847,1.4876,1.4892,1.4898,1.493,1.4941,1.4972,1.4982,1.5003,1.5047,1.5065,1.508,1.5103,1.511,1.511,1.5115,1.5129,1.513,1.5132,1.5138,1.514,1.5113,1.5113,1.5113,0,1.4784,1.4822,1.484,1.4865,1.4881,1.4894,1.4918,1.4935,1.4972,1.4982,1.4981,1.5033,1.5053,1.5087,1.5092,1.5105,1.511,1.5107,1.5129,1.513,1.5132,1.5138,1.514,1.5112,1.5112,1.5112,1.5112,0,1.4822,1.4848,1.4865,1.4898,1.4916,1.494,1.496,1.4976,1.4984,1.4999,1.5029,1.5052,1.5081,1.509,1.51,1.5124,1.5122,1.5125,1.5123,1.5133,1.5139,1.5142,1.5112,1.5112,1.5112,1.5112,0,0,1.4844,1.4883,1.4889,1.4902,1.4933,1.4953,1.4976,1.5003,1.5015,1.5038,1.5057,1.5091,1.5092,1.5109,1.512,1.5132,1.5145,1.5133,1.5134,1.5133,1.517,1.5168,1.5171,1.5149,1.515,1.515,1.5167,0,1.4868,1.4911,1.4925,1.496,1.4982,1.4992,1.5011,1.5031,1.5045,1.5064,1.5079,1.5102,1.5103,1.5112,1.5125,1.5141,1.5153,1.514,1.5166,1.5166,1.5158,1.5174,1.5173,1.5188,1.517,1.517,1.5171,0,1.4903,1.4925,1.4961,1.4986,1.4996,1.5013,1.5037,1.5056,1.5077,1.5086,1.5102,1.5112,1.5134,1.513,1.5159,1.515,1.5161,1.517,1.5171,1.5174,1.5169,1.5177,1.5193,1.5195,1.5175,1.5175,1.5174,0,1.4912,1.4951,1.4976,1.4988,1.5018,1.5029,1.5042,1.5063,1.5077,1.5097,1.5106,1.5128,1.5141,1.5157,1.5171,1.5167,1.5198,1.5196,1.5205,1.5204,1.5212,1.5211,1.5229,1.5219,1.5219,1.5219,1.5219,0,1.4937,1.4959,1.498,1.4996,1.5019,1.5034,1.5056,1.507,1.5087,1.5104,1.5114,1.513,1.5148,1.5165,1.5176,1.5197,1.5203,1.5209,1.5212,1.5208,1.5207,1.5216,1.5215,1.522,1.5219,1.5219,1.5219,0,1.4952,1.4967,1.4996,1.502,1.5027,1.5042,1.5063,1.5077,1.509,1.5111,1.5117,1.5136,1.5156,1.5171,1.5199,1.5206,1.5228,1.5231,1.5221,1.5222,1.5229,1.5228,1.5253,1.5257,1.5245,1.5245,1.5245,0,1.4967,1.4983,1.5008,1.502,1.5033,1.5052,1.5065,1.5079,1.5093,1.5116,1.5127,1.5148,1.5166,1.5197,1.5213,1.5233,1.5236,1.5243,1.5239,1.5234,1.5234,1.5233,1.5234,1.5244,1.5244,1.5244,1.5244,0,1.4991,1.4997,1.5016,1.5036,1.5051,1.5069,1.5086,1.5095,1.5111,1.5125,1.5146,1.5159,1.5185,1.5205,1.5225,1.5237,1.5243,1.5245,1.5248,1.5245,1.5237,1.524,1.5221,1.5245,1.5245,1.5245,1.5245,1.5245,1.5005,1.5019,1.5037,1.5057,1.5071,1.5086,1.51,1.5112,1.513,1.5152,1.5159,1.5179,1.5196,1.5224,1.5236,1.5251,1.5251,1.5256,1.5257,1.5257,1.5256,1.5234,1.5255,1.5255,1.5255,1.5255,1.5255,0,1.5028,1.504,1.5058,1.508,1.5095,1.5098,1.5116,1.5128,1.5146,1.5161,1.5177,1.5199,1.5217,1.5233,1.5252,1.526,1.5263,1.5265,1.5264,1.5266,1.5256,1.5251,1.5262,1.5262,1.5262,1.5262,1.5262,1.5262,1.5042,1.5064,1.5071,1.5099,1.5111,1.5131,1.514,1.5153,1.5165,1.5189,1.5204,1.5213,1.5228,1.5247,1.5263,1.5267,1.5273,1.5274,1.5278,1.5268,1.5267,1.5267,1.5262,1.5275,1.5275,1.5287,1.5287,1.5287]}]]